Time,TemperatureF,DewpointF,PressureIn,WindDirection,WindDirectionDegrees,WindSpeedMPH,WindSpeedGustMPH,Humidity,HourlyPrecipIn,Conditions,Clouds,dailyrainin,SoftwareType,DateUTC
2013-05-04 00:00:00,58.9,46.8,29.78,North,360,5.0,10.0,64,0.00,,---,0.00,VWS V14.01,2013-05-04 07:00:00,
2013-05-04 00:01:00,58.3,47.0,29.78,NW,312,9.0,11.0,66,0.00,,---,0.00,VWS V14.01,2013-05-04 07:01:00,
2013-05-04 00:06:00,57.7,46.0,29.78,North,360,6.0,11.0,65,0.00,,---,0.00,VWS V14.01,2013-05-04 07:06:00,
2013-05-04 00:11:00,57.8,45.3,29.78,NW,317,0.0,11.0,63,0.00,,---,0.00,VWS V14.01,2013-05-04 07:11:00,
2013-05-04 00:16:00,58.3,47.4,29.78,NW,317,0.0,11.0,67,0.00,,---,0.00,VWS V14.01,2013-05-04 07:16:00,
2013-05-04 00:21:00,58.5,46.4,29.78,WNW,283,2.0,11.0,64,0.00,,---,0.00,VWS V14.01,2013-05-04 07:21:00,
2013-05-04 00:26:00,57.5,47.4,29.77,North,360,3.0,11.0,69,0.00,,---,0.00,VWS V14.01,2013-05-04 07:26:00,
2013-05-04 00:30:00,57.0,47.3,29.77,North,360,4.0,12.0,70,0.00,,---,0.00,VWS V14.01,2013-05-04 07:30:00,
2013-05-04 00:31:00,56.8,47.1,29.77,North,360,4.0,10.0,70,0.00,,---,0.00,VWS V14.01,2013-05-04 07:31:00,
2013-05-04 00:36:00,56.5,47.2,29.77,West,281,0.0,10.0,71,0.00,,---,0.00,VWS V14.01,2013-05-04 07:36:00,
2013-05-04 00:41:00,56.3,47.4,29.76,NW,320,6.0,10.0,72,0.00,,---,0.00,VWS V14.01,2013-05-04 07:41:00,
2013-05-04 00:46:00,55.8,47.7,29.76,NW,313,9.0,12.0,74,0.00,,---,0.00,VWS V14.01,2013-05-04 07:46:00,
2013-05-04 00:51:00,55.5,47.7,29.77,WNW,284,4.0,12.0,75,0.00,,---,0.00,VWS V14.01,2013-05-04 07:51:00,
2013-05-04 00:56:00,55.3,47.9,29.76,North,360,0.0,13.0,76,0.00,,---,0.00,VWS V14.01,2013-05-04 07:56:00,
2013-05-04 01:00:00,55.2,47.8,29.76,North,360,2.0,13.0,76,0.00,,---,0.00,VWS V14.01,2013-05-04 08:00:00,
2013-05-04 01:02:00,55.2,47.8,29.76,North,360,8.0,14.0,76,0.00,,---,0.00,VWS V14.01,2013-05-04 08:02:00,
2013-05-04 01:07:00,55.2,47.1,29.76,WNW,285,0.0,14.0,74,0.00,,---,0.00,VWS V14.01,2013-05-04 08:07:00,
2013-05-04 01:12:00,55.2,47.8,29.75,WNW,284,4.0,14.0,76,0.00,,---,0.00,VWS V14.01,2013-05-04 08:12:00,
2013-05-04 01:17:00,55.0,47.9,29.76,North,360,3.0,14.0,77,0.00,,---,0.00,VWS V14.01,2013-05-04 08:17:00,
2013-05-04 01:22:00,54.9,47.8,29.75,North,360,6.0,14.0,77,0.00,,---,0.00,VWS V14.01,2013-05-04 08:22:00,
2013-05-04 01:27:00,54.6,48.2,29.75,NW,324,12.0,14.0,79,0.00,,---,0.00,VWS V14.01,2013-05-04 08:27:00,
2013-05-04 01:30:00,54.3,48.3,29.75,NW,313,9.0,14.0,80,0.00,,---,0.00,VWS V14.01,2013-05-04 08:30:00,
2013-05-04 01:32:00,54.0,48.3,29.74,North,360,12.0,14.0,81,0.00,,---,0.00,VWS V14.01,2013-05-04 08:32:00,
2013-05-04 01:37:00,53.7,48.3,29.75,WNW,283,1.0,15.0,82,0.00,,---,0.00,VWS V14.01,2013-05-04 08:37:00,
2013-05-04 01:42:00,53.5,48.2,29.74,WNW,284,9.0,15.0,82,0.00,,---,0.00,VWS V14.01,2013-05-04 08:42:00,
2013-05-04 01:47:00,53.5,48.5,29.73,NW,315,9.0,15.0,83,0.00,,---,0.00,VWS V14.01,2013-05-04 08:47:00,
2013-05-04 01:52:00,53.2,48.2,29.74,NW,313,7.0,15.0,83,0.00,,---,0.00,VWS V14.01,2013-05-04 08:52:00,
2013-05-04 01:57:00,52.9,48.2,29.73,NW,313,9.0,15.0,84,0.00,,---,0.00,VWS V14.01,2013-05-04 08:57:00,
2013-05-04 02:00:00,52.9,48.2,29.73,NW,313,7.0,15.0,84,0.00,,---,0.00,VWS V14.01,2013-05-04 09:00:00,
2013-05-04 02:02:00,52.9,48.2,29.73,North,360,1.0,11.0,84,0.00,,---,0.00,VWS V14.01,2013-05-04 09:02:00,
2013-05-04 02:07:00,53.0,48.3,29.74,North,360,1.0,11.0,84,0.00,,---,0.00,VWS V14.01,2013-05-04 09:07:00,
2013-05-04 02:12:00,53.2,48.5,29.73,NW,311,0.0,11.0,84,0.00,,---,0.00,VWS V14.01,2013-05-04 09:12:00,
2013-05-04 02:17:00,53.3,48.0,29.73,NW,311,0.0,11.0,82,0.00,,---,0.00,VWS V14.01,2013-05-04 09:17:00,
2013-05-04 02:22:00,53.4,48.0,29.73,NW,310,0.0,11.0,82,0.00,,---,0.00,VWS V14.01,2013-05-04 09:22:00,
2013-05-04 02:27:00,53.7,48.3,29.73,NW,305,3.0,11.0,82,0.00,,---,0.00,VWS V14.01,2013-05-04 09:27:00,
2013-05-04 02:30:00,53.6,48.2,29.74,NW,311,10.0,11.0,82,0.00,,---,0.00,VWS V14.01,2013-05-04 09:30:00,
2013-05-04 02:32:00,53.3,48.3,29.73,NW,317,3.0,11.0,83,0.00,,---,0.00,VWS V14.01,2013-05-04 09:32:00,
2013-05-04 02:37:00,53.5,47.8,29.74,NW,316,0.0,11.0,81,0.00,,---,0.00,VWS V14.01,2013-05-04 09:37:00,
2013-05-04 02:42:00,53.7,47.3,29.74,NW,315,3.0,11.0,79,0.00,,---,0.00,VWS V14.01,2013-05-04 09:42:00,
2013-05-04 02:47:00,54.4,44.5,29.73,NW,311,1.0,11.0,69,0.00,,---,0.00,VWS V14.01,2013-05-04 09:47:00,
2013-05-04 02:52:00,55.5,41.4,29.73,NW,310,0.0,11.0,59,0.00,,---,0.00,VWS V14.01,2013-05-04 09:52:00,
2013-05-04 02:57:00,56.9,39.0,29.73,NW,306,0.0,11.0,51,0.00,,---,0.00,VWS V14.01,2013-05-04 09:57:00,
2013-05-04 03:00:00,57.4,38.4,29.73,NW,306,0.0,11.0,49,0.00,,---,0.00,VWS V14.01,2013-05-04 10:00:00,
2013-05-04 03:02:00,58.0,39.0,29.73,NW,306,0.0,0.0,49,0.00,,---,0.00,VWS V14.01,2013-05-04 10:02:00,
2013-05-04 03:07:00,58.6,37.3,29.73,WNW,303,3.0,4.0,45,0.00,,---,0.00,VWS V14.01,2013-05-04 10:07:00,
2013-05-04 03:12:00,59.5,37.0,29.72,WNW,285,0.0,5.0,43,0.00,,---,0.00,VWS V14.01,2013-05-04 10:12:00,
2013-05-04 03:17:00,59.9,38.0,29.72,WNW,285,0.0,5.0,44,0.00,,---,0.00,VWS V14.01,2013-05-04 10:17:00,
2013-05-04 03:22:00,60.0,38.0,29.73,WNW,283,0.0,5.0,44,0.00,,---,0.00,VWS V14.01,2013-05-04 10:22:00,
2013-05-04 03:27:00,59.9,40.2,29.72,West,281,0.0,5.0,48,0.00,,---,0.00,VWS V14.01,2013-05-04 10:27:00,
2013-05-04 03:30:00,59.8,38.4,29.72,West,281,0.0,5.0,45,0.00,,---,0.00,VWS V14.01,2013-05-04 10:30:00,
2013-05-04 03:32:00,59.7,36.6,29.72,WNW,283,0.0,2.0,42,0.00,,---,0.00,VWS V14.01,2013-05-04 10:32:00,
2013-05-04 03:37:00,59.8,36.1,29.72,WNW,283,2.0,4.0,41,0.00,,---,0.00,VWS V14.01,2013-05-04 10:37:00,
2013-05-04 03:43:00,60.5,36.1,29.72,North,360,0.0,4.0,40,0.00,,---,0.00,VWS V14.01,2013-05-04 10:43:00,
2013-05-04 03:48:00,60.9,37.1,29.72,West,271,0.0,4.0,41,0.00,,---,0.00,VWS V14.01,2013-05-04 10:48:00,
2013-05-04 03:53:00,60.8,38.8,29.72,West,271,0.0,4.0,44,0.00,,---,0.00,VWS V14.01,2013-05-04 10:53:00,
2013-05-04 03:58:00,60.4,39.5,29.72,West,271,0.0,4.0,46,0.00,,---,0.00,VWS V14.01,2013-05-04 10:58:00,
2013-05-04 04:00:00,60.3,40.0,29.72,West,271,0.0,4.0,47,0.00,,---,0.00,VWS V14.01,2013-05-04 11:00:00,
2013-05-04 04:03:00,59.9,39.1,29.72,West,271,0.0,0.0,46,0.00,,---,0.00,VWS V14.01,2013-05-04 11:03:00,
2013-05-04 04:08:00,59.4,38.1,29.72,West,271,0.0,0.0,45,0.00,,---,0.00,VWS V14.01,2013-05-04 11:08:00,
2013-05-04 04:13:00,59.4,39.2,29.72,West,271,0.0,0.0,47,0.00,,---,0.00,VWS V14.01,2013-05-04 11:13:00,
2013-05-04 04:18:00,59.4,40.8,29.72,West,271,0.0,1.0,50,0.00,,---,0.00,VWS V14.01,2013-05-04 11:18:00,
2013-05-04 04:23:00,59.1,40.0,29.72,West,271,0.0,1.0,49,0.00,,---,0.00,VWS V14.01,2013-05-04 11:23:00,
2013-05-04 04:28:00,59.0,39.9,29.72,West,271,0.0,1.0,49,0.00,,---,0.00,VWS V14.01,2013-05-04 11:28:00,
2013-05-04 04:30:00,59.0,39.9,29.72,West,271,0.0,2.0,49,0.00,,---,0.00,VWS V14.01,2013-05-04 11:30:00,
2013-05-04 04:33:00,59.0,40.4,29.72,West,271,0.0,0.0,50,0.00,,---,0.00,VWS V14.01,2013-05-04 11:33:00,
2013-05-04 04:38:00,58.8,40.7,29.71,West,271,0.0,0.0,51,0.00,,---,0.00,VWS V14.01,2013-05-04 11:38:00,
2013-05-04 04:43:00,58.6,39.0,29.71,West,271,0.0,0.0,48,0.00,,---,0.00,VWS V14.01,2013-05-04 11:43:00,
2013-05-04 04:48:00,58.5,39.4,29.71,West,271,0.0,0.0,49,0.00,,---,0.00,VWS V14.01,2013-05-04 11:48:00,
2013-05-04 04:53:00,58.2,39.2,29.71,West,271,0.0,0.0,49,0.00,,---,0.00,VWS V14.01,2013-05-04 11:53:00,
2013-05-04 04:58:00,58.1,38.0,29.71,West,271,0.0,0.0,47,0.00,,---,0.00,VWS V14.01,2013-05-04 11:58:00,
2013-05-04 05:00:00,58.1,38.0,29.71,West,271,0.0,0.0,47,0.00,,---,0.00,VWS V14.01,2013-05-04 12:00:00,
2013-05-04 05:04:00,58.1,36.9,29.71,West,271,0.0,0.0,45,0.00,,---,0.00,VWS V14.01,2013-05-04 12:04:00,
2013-05-04 05:09:00,58.1,35.7,29.71,West,271,0.0,0.0,43,0.00,,---,0.00,VWS V14.01,2013-05-04 12:09:00,
2013-05-04 05:15:00,58.3,34.1,29.71,West,271,0.0,0.0,40,0.00,,---,0.00,VWS V14.01,2013-05-04 12:15:00,
2013-05-04 05:20:00,58.6,34.4,29.71,West,271,0.0,0.0,40,0.00,,---,0.00,VWS V14.01,2013-05-04 12:20:00,
2013-05-04 05:25:00,59.0,34.7,29.71,West,271,0.0,0.0,40,0.00,,---,0.00,VWS V14.01,2013-05-04 12:25:00,
2013-05-04 05:30:00,59.0,33.5,29.71,West,271,0.0,0.0,38,0.00,,---,0.00,VWS V14.01,2013-05-04 12:30:00,
2013-05-04 05:31:00,59.0,34.1,29.71,West,271,0.0,0.0,39,0.00,,---,0.00,VWS V14.01,2013-05-04 12:31:00,
2013-05-04 05:36:00,59.0,34.1,29.70,West,271,0.0,0.0,39,0.00,,---,0.00,VWS V14.01,2013-05-04 12:36:00,
2013-05-04 05:41:00,59.0,34.1,29.70,West,271,0.0,0.0,39,0.00,,---,0.00,VWS V14.01,2013-05-04 12:41:00,
2013-05-04 05:46:00,59.0,33.5,29.70,West,271,0.0,0.0,38,0.00,,---,0.00,VWS V14.01,2013-05-04 12:46:00,
2013-05-04 05:52:00,60.0,33.0,29.70,West,271,0.0,0.0,36,0.00,,---,0.00,VWS V14.01,2013-05-04 12:52:00,
2013-05-04 05:57:00,61.2,33.3,29.70,West,271,0.0,0.0,35,0.00,,---,0.00,VWS V14.01,2013-05-04 12:57:00,
2013-05-04 06:00:00,61.7,33.8,29.70,West,271,0.0,0.0,35,0.00,,---,0.00,VWS V14.01,2013-05-04 13:00:00,
2013-05-04 06:02:00,62.1,34.2,29.70,West,271,0.0,0.0,35,0.00,,---,0.00,VWS V14.01,2013-05-04 13:02:00,
2013-05-04 06:06:00,62.5,34.5,29.70,West,271,0.0,0.0,35,0.00,,---,0.00,VWS V14.01,2013-05-04 13:06:00,
2013-05-04 06:11:00,62.2,34.9,29.70,West,271,0.0,0.0,36,0.00,,---,0.00,VWS V14.01,2013-05-04 13:11:00,
2013-05-04 06:16:00,61.6,35.1,29.70,West,271,0.0,0.0,37,0.00,,---,0.00,VWS V14.01,2013-05-04 13:16:00,
2013-05-04 06:21:00,61.3,35.5,29.70,West,271,0.0,0.0,38,0.00,,---,0.00,VWS V14.01,2013-05-04 13:21:00,
2013-05-04 06:26:00,61.2,35.4,29.70,West,271,0.0,0.0,38,0.00,,---,0.00,VWS V14.01,2013-05-04 13:26:00,
2013-05-04 06:30:00,61.1,35.3,29.70,West,271,0.0,0.0,38,0.00,,---,0.00,VWS V14.01,2013-05-04 13:30:00,
2013-05-04 06:31:00,61.1,35.3,29.70,West,271,0.0,0.0,38,0.00,,---,0.00,VWS V14.01,2013-05-04 13:31:00,
2013-05-04 06:36:00,61.4,35.6,29.70,West,271,0.0,0.0,38,0.00,,---,0.00,VWS V14.01,2013-05-04 13:36:00,
2013-05-04 06:41:00,62.2,35.6,29.70,West,271,0.0,1.0,37,0.00,,---,0.00,VWS V14.01,2013-05-04 13:41:00,
2013-05-04 06:47:00,62.9,36.2,29.70,West,271,0.0,1.0,37,0.00,,---,0.00,VWS V14.01,2013-05-04 13:47:00,
2013-05-04 06:52:00,63.3,36.6,29.70,West,271,0.0,1.0,37,0.00,,---,0.00,VWS V14.01,2013-05-04 13:52:00,
2013-05-04 06:57:00,63.5,37.5,29.70,West,271,0.0,1.0,38,0.00,,---,0.00,VWS V14.01,2013-05-04 13:57:00,
2013-05-04 07:00:00,63.6,38.2,29.70,West,271,0.0,1.0,39,0.00,,---,0.00,VWS V14.01,2013-05-04 14:00:00,
2013-05-04 07:02:00,63.6,37.5,29.70,West,271,0.0,0.0,38,0.00,,---,0.00,VWS V14.01,2013-05-04 14:02:00,
2013-05-04 07:07:00,63.6,36.9,29.70,West,271,0.0,0.0,37,0.00,,---,0.00,VWS V14.01,2013-05-04 14:07:00,
2013-05-04 07:12:00,63.8,38.4,29.70,West,271,0.0,0.0,39,0.00,,---,0.00,VWS V14.01,2013-05-04 14:12:00,
2013-05-04 07:17:00,64.4,40.2,29.70,West,271,0.0,0.0,41,0.00,,---,0.00,VWS V14.01,2013-05-04 14:17:00,
2013-05-04 07:22:00,64.6,40.4,29.70,West,271,0.0,0.0,41,0.00,,---,0.00,VWS V14.01,2013-05-04 14:22:00,
2013-05-04 07:27:00,65.1,40.8,29.70,West,271,0.0,0.0,41,0.00,,---,0.00,VWS V14.01,2013-05-04 14:27:00,
2013-05-04 07:30:00,65.4,41.7,29.70,West,271,0.0,0.0,42,0.00,,---,0.00,VWS V14.01,2013-05-04 14:30:00,
2013-05-04 07:32:00,65.8,42.1,29.70,WSW,237,0.0,3.0,42,0.00,,---,0.00,VWS V14.01,2013-05-04 14:32:00,
2013-05-04 07:37:00,65.9,42.8,29.70,SW,234,0.0,3.0,43,0.00,,---,0.00,VWS V14.01,2013-05-04 14:37:00,
2013-05-04 07:42:00,66.0,43.5,29.70,SW,231,0.0,3.0,44,0.00,,---,0.00,VWS V14.01,2013-05-04 14:42:00,
2013-05-04 07:47:00,66.1,44.2,29.70,SW,230,0.0,3.0,45,0.00,,---,0.00,VWS V14.01,2013-05-04 14:47:00,
2013-05-04 07:52:00,66.4,44.4,29.70,SW,231,0.0,3.0,45,0.00,,---,0.00,VWS V14.01,2013-05-04 14:52:00,
2013-05-04 07:57:00,66.8,43.6,29.70,SW,231,0.0,3.0,43,0.00,,---,0.00,VWS V14.01,2013-05-04 14:57:00,
2013-05-04 08:00:00,66.9,44.3,29.70,SW,231,0.0,3.0,44,0.00,,---,0.00,VWS V14.01,2013-05-04 15:00:00,
2013-05-04 08:02:00,67.1,43.3,29.70,SW,231,0.0,0.0,42,0.00,,---,0.00,VWS V14.01,2013-05-04 15:02:00,
2013-05-04 08:07:00,67.4,43.5,29.70,SW,231,0.0,0.0,42,0.00,,---,0.00,VWS V14.01,2013-05-04 15:07:00,
2013-05-04 08:12:00,67.7,44.4,29.70,SW,231,0.0,1.0,43,0.00,,---,0.00,VWS V14.01,2013-05-04 15:12:00,
2013-05-04 08:17:00,67.6,44.9,29.70,SW,228,0.0,1.0,44,0.00,,---,0.00,VWS V14.01,2013-05-04 15:17:00,
2013-05-04 08:22:00,68.0,45.3,29.70,SW,227,0.0,1.0,44,0.00,,---,0.00,VWS V14.01,2013-05-04 15:22:00,
2013-05-04 08:27:00,68.2,46.7,29.70,SW,227,0.0,1.0,46,0.00,,---,0.00,VWS V14.01,2013-05-04 15:27:00,
2013-05-04 08:30:00,68.4,46.8,29.70,SW,227,0.0,1.0,46,0.00,,---,0.00,VWS V14.01,2013-05-04 15:30:00,
2013-05-04 08:32:00,68.3,46.7,29.70,SW,224,0.0,1.0,46,0.00,,---,0.00,VWS V14.01,2013-05-04 15:32:00,
2013-05-04 08:37:00,68.7,48.2,29.70,SW,223,0.0,1.0,48,0.00,,---,0.00,VWS V14.01,2013-05-04 15:37:00,
2013-05-04 08:42:00,69.1,48.0,29.69,SW,223,0.0,1.0,47,0.00,,---,0.00,VWS V14.01,2013-05-04 15:42:00,
2013-05-04 08:47:00,69.3,47.1,29.69,SW,221,0.0,1.0,45,0.00,,---,0.00,VWS V14.01,2013-05-04 15:47:00,
2013-05-04 08:53:00,69.4,47.7,29.69,SSW,202,0.0,4.0,46,0.00,,---,0.00,VWS V14.01,2013-05-04 15:53:00,
2013-05-04 08:58:00,69.4,48.3,29.69,SSW,202,0.0,4.0,47,0.00,,---,0.00,VWS V14.01,2013-05-04 15:58:00,
2013-05-04 09:00:00,69.6,48.5,29.69,SSW,202,0.0,4.0,47,0.00,,---,0.00,VWS V14.01,2013-05-04 16:00:00,
2013-05-04 09:03:00,70.1,49.0,29.69,SSW,202,0.0,1.0,47,0.00,,---,0.00,VWS V14.01,2013-05-04 16:03:00,
2013-05-04 09:08:00,70.8,50.2,29.69,SSW,202,0.0,1.0,48,0.00,,---,0.00,VWS V14.01,2013-05-04 16:08:00,
2013-05-04 09:13:00,71.0,50.9,29.68,SSW,199,0.0,1.0,49,0.00,,---,0.00,VWS V14.01,2013-05-04 16:13:00,
2013-05-04 09:18:00,71.8,53.8,29.69,SSW,200,0.0,1.0,53,0.00,,---,0.00,VWS V14.01,2013-05-04 16:18:00,
2013-05-04 09:23:00,72.3,53.7,29.69,SSW,200,0.0,1.0,52,0.00,,---,0.00,VWS V14.01,2013-05-04 16:23:00,
2013-05-04 09:28:00,72.5,52.8,29.68,SSW,200,0.0,1.0,50,0.00,,---,0.00,VWS V14.01,2013-05-04 16:28:00,
2013-05-04 09:30:00,72.6,52.9,29.68,SSW,200,0.0,1.0,50,0.00,,---,0.00,VWS V14.01,2013-05-04 16:30:00,
2013-05-04 09:33:00,72.8,52.5,29.68,SSW,198,0.0,1.0,49,0.00,,---,0.00,VWS V14.01,2013-05-04 16:33:00,
2013-05-04 09:38:00,73.1,52.8,29.68,SSW,192,0.0,1.0,49,0.00,,---,0.00,VWS V14.01,2013-05-04 16:38:00,
2013-05-04 09:43:00,73.1,49.3,29.68,SSW,192,0.0,1.0,43,0.00,,---,0.00,VWS V14.01,2013-05-04 16:43:00,
2013-05-04 09:48:00,72.2,45.2,29.68,West,279,0.0,6.0,38,0.00,,---,0.00,VWS V14.01,2013-05-04 16:48:00,
2013-05-04 09:53:00,71.5,45.9,29.68,West,273,0.0,6.0,40,0.00,,---,0.00,VWS V14.01,2013-05-04 16:53:00,
2013-05-04 09:58:00,72.2,46.6,29.68,North,360,6.0,8.0,40,0.00,,---,0.00,VWS V14.01,2013-05-04 16:58:00,
2013-05-04 10:00:00,71.7,45.5,29.68,North,360,4.0,8.0,39,0.00,,---,0.00,VWS V14.01,2013-05-04 17:00:00,
2013-05-04 10:03:00,70.2,45.4,29.68,West,279,1.0,5.0,41,0.00,,---,0.00,VWS V14.01,2013-05-04 17:03:00,
2013-05-04 10:08:00,67.8,45.7,29.67,NW,319,0.0,12.0,45,0.00,,---,0.00,VWS V14.01,2013-05-04 17:08:00,
2013-05-04 10:13:00,67.5,44.8,29.67,WNW,303,3.0,12.0,44,0.00,,---,0.00,VWS V14.01,2013-05-04 17:13:00,
2013-05-04 10:18:00,67.0,45.6,29.67,North,360,4.0,12.0,46,0.00,,---,0.00,VWS V14.01,2013-05-04 17:18:00,
2013-05-04 10:23:00,67.1,44.5,29.67,North,360,5.0,12.0,44,0.00,,---,0.00,VWS V14.01,2013-05-04 17:23:00,
2013-05-04 10:28:00,66.8,44.2,29.67,WNW,303,7.0,12.0,44,0.00,,---,0.00,VWS V14.01,2013-05-04 17:28:00,
2013-05-04 10:30:00,66.8,43.6,29.67,North,360,6.0,12.0,43,0.00,,---,0.00,VWS V14.01,2013-05-04 17:30:00,
2013-05-04 10:33:00,66.3,46.6,29.67,NW,313,6.0,14.0,49,0.00,,---,0.00,VWS V14.01,2013-05-04 17:33:00,
2013-05-04 10:38:00,66.1,45.9,29.67,NW,309,4.0,14.0,48,0.00,,---,0.00,VWS V14.01,2013-05-04 17:38:00,
2013-05-04 10:43:00,65.6,47.5,29.67,North,360,8.0,14.0,52,0.00,,---,0.00,VWS V14.01,2013-05-04 17:43:00,
2013-05-04 10:48:00,65.6,46.0,29.67,NW,314,9.0,15.0,49,0.00,,---,0.00,VWS V14.01,2013-05-04 17:48:00,
2013-05-04 10:53:00,65.2,47.7,29.67,NW,307,10.0,15.0,53,0.00,,---,0.00,VWS V14.01,2013-05-04 17:53:00,
2013-05-04 10:58:00,64.6,48.1,29.67,NW,307,10.0,15.0,55,0.00,,---,0.00,VWS V14.01,2013-05-04 17:58:00,
2013-05-04 11:00:00,64.5,48.0,29.67,NW,304,10.0,15.0,55,0.00,,---,0.00,VWS V14.01,2013-05-04 18:00:00,
2013-05-04 11:03:00,64.3,48.8,29.67,NW,309,10.0,16.0,57,0.00,,---,0.00,VWS V14.01,2013-05-04 18:03:00,
2013-05-04 11:08:00,63.9,48.8,29.67,NW,304,4.0,17.0,58,0.00,,---,0.00,VWS V14.01,2013-05-04 18:08:00,
2013-05-04 11:13:00,63.7,48.7,29.67,NW,307,13.0,17.0,58,0.00,,---,0.00,VWS V14.01,2013-05-04 18:13:00,
2013-05-04 11:18:00,63.5,49.4,29.67,NW,323,17.0,18.0,60,0.00,,---,0.00,VWS V14.01,2013-05-04 18:18:00,
2013-05-04 11:24:00,63.4,49.3,29.67,NW,318,6.0,18.0,60,0.00,,---,0.00,VWS V14.01,2013-05-04 18:24:00,
2013-05-04 11:29:00,63.8,49.7,29.67,NW,306,13.0,18.0,60,0.00,,---,0.00,VWS V14.01,2013-05-04 18:29:00,
2013-05-04 11:30:00,63.7,49.6,29.67,NNW,344,16.0,18.0,60,0.00,,---,0.00,VWS V14.01,2013-05-04 18:30:00,
2013-05-04 11:34:00,63.5,49.4,29.67,NW,320,13.0,16.0,60,0.00,,---,0.00,VWS V14.01,2013-05-04 18:34:00,
2013-05-04 11:39:00,63.5,49.4,29.67,NW,325,14.0,18.0,60,0.00,,---,0.00,VWS V14.01,2013-05-04 18:39:00,
2013-05-04 11:44:00,62.9,48.8,29.67,NW,317,16.0,21.0,60,0.00,,---,0.00,VWS V14.01,2013-05-04 18:44:00,
2013-05-04 11:49:00,63.0,49.8,29.67,NW,317,12.0,21.0,62,0.00,,---,0.00,VWS V14.01,2013-05-04 18:49:00,
2013-05-04 11:54:00,62.6,49.8,29.66,NNW,327,13.0,21.0,63,0.00,,---,0.00,VWS V14.01,2013-05-04 18:54:00,
2013-05-04 11:59:00,62.2,50.3,29.66,NW,313,16.0,21.0,65,0.00,,---,0.00,VWS V14.01,2013-05-04 18:59:00,
2013-05-04 12:00:00,62.1,49.8,29.66,NW,317,17.0,21.0,64,0.00,,---,0.00,VWS V14.01,2013-05-04 19:00:00,
2013-05-04 12:04:00,62.5,49.8,29.66,West,279,15.0,18.0,63,0.00,,---,0.00,VWS V14.01,2013-05-04 19:04:00,
2013-05-04 12:09:00,62.8,50.9,29.66,NW,317,15.0,19.0,65,0.00,,---,0.00,VWS V14.01,2013-05-04 19:09:00,
2013-05-04 12:14:00,62.6,50.3,29.66,North,360,12.0,19.0,64,0.00,,---,0.00,VWS V14.01,2013-05-04 19:14:00,
2013-05-04 12:19:00,62.1,50.2,29.65,NW,315,17.0,21.0,65,0.00,,---,0.00,VWS V14.01,2013-05-04 19:19:00,
2013-05-04 12:24:00,61.9,50.4,29.65,NW,316,18.0,21.0,66,0.00,,---,0.00,VWS V14.01,2013-05-04 19:24:00,
2013-05-04 12:29:00,62.5,51.0,29.65,NW,313,15.0,21.0,66,0.00,,---,0.00,VWS V14.01,2013-05-04 19:29:00,
2013-05-04 12:30:00,62.5,51.0,29.65,NW,313,15.0,21.0,66,0.00,,---,0.00,VWS V14.01,2013-05-04 19:30:00,
2013-05-04 12:34:00,62.5,50.2,29.65,NW,325,15.0,19.0,64,0.00,,---,0.00,VWS V14.01,2013-05-04 19:34:00,
2013-05-04 12:39:00,62.4,50.5,29.65,NW,319,16.0,19.0,65,0.00,,---,0.00,VWS V14.01,2013-05-04 19:39:00,
2013-05-04 12:44:00,62.1,49.8,29.65,NW,311,16.0,19.0,64,0.00,,---,0.00,VWS V14.01,2013-05-04 19:44:00,
2013-05-04 12:49:00,62.1,49.4,29.64,NW,317,14.0,21.0,63,0.00,,---,0.00,VWS V14.01,2013-05-04 19:49:00,
2013-05-04 12:54:00,62.9,50.1,29.64,NW,324,12.0,21.0,63,0.00,,---,0.00,VWS V14.01,2013-05-04 19:54:00,
2013-05-04 12:59:00,63.5,49.8,29.64,NNW,331,16.0,18.0,61,0.00,,---,0.00,VWS V14.01,2013-05-04 19:59:00,
2013-05-04 13:00:00,63.5,49.8,29.64,NW,316,14.0,21.0,61,0.00,,---,0.00,VWS V14.01,2013-05-04 20:00:00,
2013-05-04 13:04:00,62.7,49.5,29.64,North,360,18.0,20.0,62,0.00,,---,0.00,VWS V14.01,2013-05-04 20:04:00,
2013-05-04 13:09:00,62.7,49.5,29.63,NW,319,12.0,20.0,62,0.00,,---,0.00,VWS V14.01,2013-05-04 20:09:00,
2013-05-04 13:14:00,62.6,49.0,29.63,NW,316,14.0,21.0,61,0.00,,---,0.00,VWS V14.01,2013-05-04 20:14:00,
2013-05-04 13:19:00,62.6,48.5,29.63,NW,309,17.0,23.0,60,0.00,,---,0.00,VWS V14.01,2013-05-04 20:19:00,
2013-05-04 13:24:00,63.0,49.8,29.63,NW,320,18.0,23.0,62,0.00,,---,0.00,VWS V14.01,2013-05-04 20:24:00,
2013-05-04 13:29:00,63.9,50.2,29.63,NW,319,13.0,18.0,61,0.00,,---,0.00,VWS V14.01,2013-05-04 20:29:00,
2013-05-04 13:30:00,63.9,50.2,29.63,NW,319,18.0,23.0,61,0.00,,---,0.00,VWS V14.01,2013-05-04 20:30:00,
2013-05-04 13:34:00,63.4,50.2,29.62,NW,326,16.0,21.0,62,0.00,,---,0.00,VWS V14.01,2013-05-04 20:34:00,
2013-05-04 13:39:00,63.0,50.2,29.62,NNW,327,16.0,21.0,63,0.00,,---,0.00,VWS V14.01,2013-05-04 20:39:00,
2013-05-04 13:44:00,62.5,50.2,29.62,NW,314,19.0,21.0,64,0.00,,---,0.00,VWS V14.01,2013-05-04 20:44:00,
2013-05-04 13:50:00,62.6,51.1,29.62,NW,319,15.0,22.0,66,0.00,,---,0.00,VWS V14.01,2013-05-04 20:50:00,
2013-05-04 13:55:00,62.7,50.8,29.62,NW,322,15.0,22.0,65,0.00,,---,0.00,VWS V14.01,2013-05-04 20:55:00,
2013-05-04 14:00:00,61.4,50.4,29.61,NW,325,21.0,21.0,67,0.00,,---,0.00,VWS V14.01,2013-05-04 21:00:00,
2013-05-04 14:05:00,61.5,50.5,29.61,North,360,13.0,22.0,67,0.00,,---,0.00,VWS V14.01,2013-05-04 21:05:00,
2013-05-04 14:10:00,62.2,49.5,29.62,North,360,19.0,24.0,63,0.00,,---,0.00,VWS V14.01,2013-05-04 21:10:00,
2013-05-04 14:15:00,61.9,50.4,29.62,NW,309,16.0,24.0,66,0.00,,---,0.00,VWS V14.01,2013-05-04 21:15:00,
2013-05-04 14:20:00,62.3,50.8,29.61,North,360,14.0,24.0,66,0.00,,---,0.00,VWS V14.01,2013-05-04 21:20:00,
2013-05-04 14:25:00,63.3,50.5,29.61,NW,311,19.0,24.0,63,0.00,,---,0.00,VWS V14.01,2013-05-04 21:25:00,
2013-05-04 14:30:00,63.9,48.4,29.61,NW,313,17.0,22.0,57,0.00,,---,0.00,VWS V14.01,2013-05-04 21:30:00,
2013-05-04 14:35:00,64.8,48.3,29.60,NNW,328,13.0,24.0,55,0.00,,---,0.00,VWS V14.01,2013-05-04 21:35:00,
2013-05-04 14:40:00,64.9,49.3,29.60,WNW,286,13.0,24.0,57,0.00,,---,0.00,VWS V14.01,2013-05-04 21:40:00,
2013-05-04 14:45:00,64.9,49.8,29.60,WNW,303,18.0,24.0,58,0.00,,---,0.00,VWS V14.01,2013-05-04 21:45:00,
2013-05-04 14:50:00,64.3,50.6,29.60,NW,309,16.0,24.0,61,0.00,,---,0.00,VWS V14.01,2013-05-04 21:50:00,
2013-05-04 14:55:00,63.5,49.8,29.59,NW,313,22.0,24.0,61,0.00,,---,0.00,VWS V14.01,2013-05-04 21:55:00,
2013-05-04 15:00:00,62.3,50.8,29.59,NW,315,23.0,27.0,66,0.00,,---,0.00,VWS V14.01,2013-05-04 22:00:00,
2013-05-04 15:05:00,61.7,51.0,29.59,NNW,331,23.0,27.0,68,0.00,,---,0.00,VWS V14.01,2013-05-04 22:05:00,
2013-05-04 15:10:00,61.1,51.2,29.59,NW,319,19.0,27.0,70,0.00,,---,0.00,VWS V14.01,2013-05-04 22:10:00,
2013-05-04 15:15:00,61.0,50.8,29.59,NNW,327,20.0,27.0,69,0.00,,---,0.00,VWS V14.01,2013-05-04 22:15:00,
2013-05-04 15:20:00,61.2,50.6,29.58,NW,311,22.0,27.0,68,0.00,,---,0.00,VWS V14.01,2013-05-04 22:20:00,
2013-05-04 15:25:00,61.4,51.2,29.58,NW,321,20.0,27.0,69,0.00,,---,0.00,VWS V14.01,2013-05-04 22:25:00,
2013-05-04 15:30:00,60.8,51.3,29.58,North,360,17.0,27.0,71,0.00,,---,0.00,VWS V14.01,2013-05-04 22:30:00,
2013-05-04 15:31:00,60.5,51.1,29.58,North,360,17.0,26.0,71,0.00,,---,0.00,VWS V14.01,2013-05-04 22:31:00,
2013-05-04 15:36:00,59.6,51.0,29.58,NW,311,20.0,27.0,73,0.00,,---,0.00,VWS V14.01,2013-05-04 22:36:00,
2013-05-04 15:41:00,59.5,51.6,29.58,NW,313,23.0,27.0,75,0.00,,---,0.00,VWS V14.01,2013-05-04 22:41:00,
2013-05-04 15:46:00,59.4,51.5,29.58,NW,312,22.0,29.0,75,0.00,,---,0.00,VWS V14.01,2013-05-04 22:46:00,
2013-05-04 15:51:00,58.6,51.4,29.58,North,360,25.0,29.0,77,0.00,,---,0.00,VWS V14.01,2013-05-04 22:51:00,
2013-05-04 15:56:00,58.8,51.3,29.58,NNW,333,27.0,29.0,76,0.00,,---,0.00,VWS V14.01,2013-05-04 22:56:00,
2013-05-04 16:00:00,58.9,51.7,29.57,North,360,19.0,29.0,77,0.00,,---,0.00,VWS V14.01,2013-05-04 23:00:00,
2013-05-04 16:01:00,58.7,51.5,29.57,NW,323,23.0,25.0,77,0.00,,---,0.00,VWS V14.01,2013-05-04 23:01:00,
2013-05-04 16:06:00,57.9,51.4,29.58,NW,317,20.0,27.0,79,0.00,,---,0.00,VWS V14.01,2013-05-04 23:06:00,
2013-05-04 16:11:00,57.8,51.3,29.57,NW,313,17.0,27.0,79,0.00,,---,0.00,VWS V14.01,2013-05-04 23:11:00,
2013-05-04 16:16:00,57.3,51.2,29.57,NW,313,20.0,27.0,80,0.00,,---,0.00,VWS V14.01,2013-05-04 23:16:00,
2013-05-04 16:21:00,56.7,50.9,29.57,North,360,17.0,27.0,81,0.00,,---,0.00,VWS V14.01,2013-05-04 23:21:00,
2013-05-04 16:26:00,56.5,51.1,29.57,NW,318,20.0,30.0,82,0.00,,---,0.00,VWS V14.01,2013-05-04 23:26:00,
2013-05-04 16:30:00,56.4,51.0,29.57,NNW,338,13.0,30.0,82,0.00,,---,0.00,VWS V14.01,2013-05-04 23:30:00,
2013-05-04 16:31:00,56.0,50.6,29.56,NW,313,21.0,28.0,82,0.00,,---,0.00,VWS V14.01,2013-05-04 23:31:00,
2013-05-04 16:36:00,55.8,50.7,29.57,North,360,23.0,29.0,83,0.00,,---,0.00,VWS V14.01,2013-05-04 23:36:00,
2013-05-04 16:41:00,55.3,50.6,29.57,NW,323,17.0,29.0,84,0.00,,---,0.00,VWS V14.01,2013-05-04 23:41:00,
2013-05-04 16:46:00,55.1,50.7,29.56,North,360,18.0,30.0,85,0.00,,---,0.00,VWS V14.01,2013-05-04 23:46:00,
2013-05-04 16:51:00,54.9,50.8,29.56,WNW,299,22.0,30.0,86,0.00,,---,0.00,VWS V14.01,2013-05-04 23:51:00,
2013-05-04 16:56:00,54.6,50.2,29.56,WNW,283,22.0,30.0,85,0.00,,---,0.00,VWS V14.01,2013-05-04 23:56:00,
2013-05-04 17:00:00,54.4,50.3,29.57,NW,306,20.0,30.0,86,0.00,,---,0.00,VWS V14.01,2013-05-05 00:00:00,
2013-05-04 17:01:00,54.4,50.3,29.56,NW,325,23.0,25.0,86,0.00,,---,0.00,VWS V14.01,2013-05-05 00:01:00,
2013-05-04 17:06:00,54.2,50.4,29.57,NW,317,14.0,27.0,87,0.00,,---,0.00,VWS V14.01,2013-05-05 00:06:00,
2013-05-04 17:11:00,54.2,50.4,29.57,NW,311,18.0,27.0,87,0.00,,---,0.00,VWS V14.01,2013-05-05 00:11:00,
2013-05-04 17:16:00,54.2,50.4,29.56,NW,304,20.0,27.0,87,0.00,,---,0.00,VWS V14.01,2013-05-05 00:16:00,
2013-05-04 17:21:00,54.1,50.3,29.56,WNW,284,18.0,27.0,87,0.00,,---,0.00,VWS V14.01,2013-05-05 00:21:00,
2013-05-04 17:26:00,54.4,50.6,29.56,NW,318,21.0,27.0,87,0.00,,---,0.00,VWS V14.01,2013-05-05 00:26:00,
2013-05-04 17:30:00,54.6,50.8,29.56,NNW,338,18.0,27.0,87,0.00,,---,0.00,VWS V14.01,2013-05-05 00:30:00,
2013-05-04 17:31:00,54.7,50.6,29.56,NW,315,15.0,22.0,86,0.00,,---,0.00,VWS V14.01,2013-05-05 00:31:00,
2013-05-04 17:36:00,54.7,50.6,29.56,NW,315,13.0,25.0,86,0.00,,---,0.00,VWS V14.01,2013-05-05 00:36:00,
2013-05-04 17:41:00,54.9,50.8,29.56,NW,321,16.0,25.0,86,0.00,,---,0.00,VWS V14.01,2013-05-05 00:41:00,
2013-05-04 17:46:00,55.1,50.7,29.56,WNW,285,11.0,25.0,85,0.00,,---,0.00,VWS V14.01,2013-05-05 00:46:00,
2013-05-04 17:51:00,55.4,51.0,29.55,NW,326,11.0,25.0,85,0.00,,---,0.00,VWS V14.01,2013-05-05 00:51:00,
2013-05-04 17:57:00,55.7,51.0,29.55,NNW,328,12.0,25.0,84,0.00,,---,0.00,VWS V14.01,2013-05-05 00:57:00,
2013-05-04 18:00:00,55.7,51.0,29.56,NW,312,18.0,25.0,84,0.00,,---,0.00,VWS V14.01,2013-05-05 01:00:00,
2013-05-04 18:02:00,55.7,51.0,29.56,NW,323,12.0,19.0,84,0.00,,---,0.00,VWS V14.01,2013-05-05 01:02:00,
2013-05-04 18:07:00,55.9,50.8,29.55,NNW,327,12.0,22.0,83,0.00,,---,0.00,VWS V14.01,2013-05-05 01:07:00,
2013-05-04 18:12:00,55.8,50.7,29.55,NW,308,18.0,22.0,83,0.00,,---,0.00,VWS V14.01,2013-05-05 01:12:00,
2013-05-04 18:17:00,55.7,50.6,29.55,NW,311,12.0,26.0,83,0.00,,---,0.00,VWS V14.01,2013-05-05 01:17:00,
2013-05-04 18:22:00,55.7,50.6,29.55,NW,313,10.0,26.0,83,0.00,,---,0.00,VWS V14.01,2013-05-05 01:22:00,
2013-05-04 18:27:00,55.5,50.4,29.55,West,281,11.0,26.0,83,0.00,,---,0.00,VWS V14.01,2013-05-05 01:27:00,
2013-05-04 18:30:00,55.4,50.7,29.55,North,360,10.0,26.0,84,0.00,,---,0.00,VWS V14.01,2013-05-05 01:30:00,
2013-05-04 18:32:00,55.1,50.4,29.55,NW,319,13.0,23.0,84,0.00,,---,0.00,VWS V14.01,2013-05-05 01:32:00,
2013-05-04 18:37:00,54.5,50.1,29.55,NW,318,16.0,23.0,85,0.00,,---,0.00,VWS V14.01,2013-05-05 01:37:00,
2013-05-04 18:42:00,54.1,50.0,29.56,North,360,10.0,23.0,86,0.00,,---,0.00,VWS V14.01,2013-05-05 01:42:00,
2013-05-04 18:47:00,53.9,49.8,29.56,North,360,13.0,23.0,86,0.00,,---,0.00,VWS V14.01,2013-05-05 01:47:00,
2013-05-04 18:52:00,53.6,49.5,29.56,NW,306,12.0,23.0,86,0.00,,---,0.00,VWS V14.01,2013-05-05 01:52:00,
2013-05-04 18:57:00,53.3,49.5,29.56,NW,326,21.0,26.0,87,0.00,,---,0.00,VWS V14.01,2013-05-05 01:57:00,
2013-05-04 19:00:00,53.2,49.4,29.56,NW,322,16.0,26.0,87,0.00,,---,0.00,VWS V14.01,2013-05-05 02:00:00,
2013-05-04 19:02:00,53.0,49.5,29.56,WNW,285,17.0,24.0,88,0.00,,---,0.00,VWS V14.01,2013-05-05 02:02:00,
2013-05-04 19:07:00,52.7,49.2,29.56,NW,304,16.0,25.0,88,0.00,,---,0.00,VWS V14.01,2013-05-05 02:07:00,
2013-05-04 19:12:00,52.6,49.5,29.55,NW,321,22.0,25.0,89,0.00,,---,0.00,VWS V14.01,2013-05-05 02:12:00,
2013-05-04 19:17:00,52.5,49.4,29.55,West,276,10.0,25.0,89,0.00,,---,0.00,VWS V14.01,2013-05-05 02:17:00,
2013-05-04 19:22:00,52.4,49.3,29.55,NW,314,19.0,25.0,89,0.00,,---,0.00,VWS V14.01,2013-05-05 02:22:00,
2013-05-04 19:27:00,52.4,49.3,29.56,NW,307,14.0,27.0,89,0.00,,---,0.00,VWS V14.01,2013-05-05 02:27:00,
2013-05-04 19:30:00,52.4,49.3,29.56,North,360,13.0,27.0,89,0.00,,---,0.00,VWS V14.01,2013-05-05 02:30:00,
2013-05-04 19:32:00,52.4,49.3,29.56,NW,313,15.0,20.0,89,0.00,,---,0.00,VWS V14.01,2013-05-05 02:32:00,
2013-05-04 19:37:00,52.3,49.2,29.56,NW,317,13.0,23.0,89,0.00,,---,0.00,VWS V14.01,2013-05-05 02:37:00,
2013-05-04 19:42:00,52.3,49.2,29.56,North,360,12.0,23.0,89,0.00,,---,0.00,VWS V14.01,2013-05-05 02:42:00,
2013-05-04 19:47:00,52.4,49.3,29.56,NW,314,15.0,23.0,89,0.00,,---,0.00,VWS V14.01,2013-05-05 02:47:00,
2013-05-04 19:52:00,52.4,49.3,29.56,NW,321,16.0,23.0,89,0.00,,---,0.00,VWS V14.01,2013-05-05 02:52:00,
2013-05-04 19:57:00,52.4,49.3,29.56,NW,313,16.0,23.0,89,0.00,,---,0.00,VWS V14.01,2013-05-05 02:57:00,
2013-05-04 20:00:00,52.4,49.3,29.56,NW,319,15.0,23.0,89,0.00,,---,0.00,VWS V14.01,2013-05-05 03:00:00,
2013-05-04 20:02:00,52.4,49.3,29.56,NW,318,13.0,18.0,89,0.00,,---,0.00,VWS V14.01,2013-05-05 03:02:00,
2013-05-04 20:08:00,52.5,49.4,29.56,NW,324,19.0,19.0,89,0.00,,---,0.00,VWS V14.01,2013-05-05 03:08:00,
2013-05-04 20:13:00,52.6,49.2,29.56,NW,317,17.0,20.0,88,0.00,,---,0.00,VWS V14.01,2013-05-05 03:13:00,
2013-05-04 20:18:00,52.6,49.2,29.56,North,360,9.0,21.0,88,0.00,,---,0.00,VWS V14.01,2013-05-05 03:18:00,
2013-05-04 20:23:00,52.6,49.2,29.57,North,360,10.0,21.0,88,0.00,,---,0.00,VWS V14.01,2013-05-05 03:23:00,
2013-05-04 20:28:00,52.5,49.0,29.57,NW,313,15.0,21.0,88,0.00,,---,0.00,VWS V14.01,2013-05-05 03:28:00,
2013-05-04 20:30:00,52.5,49.1,29.57,NW,304,14.0,21.0,88,0.00,,---,0.00,VWS V14.01,2013-05-05 03:30:00,
2013-05-04 20:33:00,52.4,49.0,29.57,West,277,13.0,17.0,88,0.00,,---,0.00,VWS V14.01,2013-05-05 03:33:00,
2013-05-04 20:38:00,52.4,49.0,29.57,NNW,329,5.0,20.0,88,0.00,,---,0.00,VWS V14.01,2013-05-05 03:38:00,
2013-05-04 20:43:00,52.6,48.8,29.57,NW,323,5.0,20.0,87,0.00,,---,0.00,VWS V14.01,2013-05-05 03:43:00,
2013-05-04 20:48:00,52.6,48.8,29.57,NW,315,12.0,20.0,87,0.00,,---,0.00,VWS V14.01,2013-05-05 03:48:00,
2013-05-04 20:53:00,52.6,48.8,29.58,NW,321,7.0,20.0,87,0.00,,---,0.00,VWS V14.01,2013-05-05 03:53:00,
2013-05-04 20:58:00,52.6,48.8,29.58,NW,313,11.0,20.0,87,0.00,,---,0.00,VWS V14.01,2013-05-05 03:58:00,
2013-05-04 21:00:00,52.6,48.8,29.58,NW,320,3.0,20.0,87,0.00,,---,0.00,VWS V14.01,2013-05-05 04:00:00,
2013-05-04 21:01:00,52.6,48.8,29.58,NW,313,9.0,17.0,87,0.00,,---,0.00,VWS V14.01,2013-05-05 04:01:00,
2013-05-04 21:02:00,52.5,48.8,29.58,NW,317,10.0,17.0,87,0.00,,---,0.00,VWS V14.01,2013-05-05 04:02:00,
2013-05-04 21:07:00,52.5,48.8,29.58,NW,313,6.0,17.0,87,0.00,,---,0.00,VWS V14.01,2013-05-05 04:07:00,
2013-05-04 21:12:00,52.4,48.7,29.59,NW,311,4.0,17.0,87,0.00,,---,0.00,VWS V14.01,2013-05-05 04:12:00,
2013-05-04 21:17:00,52.4,48.7,29.59,NW,312,8.0,17.0,87,0.00,,---,0.00,VWS V14.01,2013-05-05 04:17:00,
2013-05-04 21:22:00,52.4,48.7,29.59,NW,318,2.0,17.0,87,0.00,,---,0.00,VWS V14.01,2013-05-05 04:22:00,
2013-05-04 21:27:00,52.4,48.7,29.59,North,360,0.0,17.0,87,0.00,,---,0.00,VWS V14.01,2013-05-05 04:27:00,
2013-05-04 21:30:00,52.4,48.7,29.59,North,360,0.0,17.0,87,0.00,,---,0.00,VWS V14.01,2013-05-05 04:30:00,
2013-05-04 21:33:00,52.5,48.8,29.59,NW,318,5.0,5.0,87,0.00,,---,0.00,VWS V14.01,2013-05-05 04:33:00,
2013-05-04 21:38:00,52.5,48.8,29.59,NW,318,0.0,6.0,87,0.00,,---,0.00,VWS V14.01,2013-05-05 04:38:00,
2013-05-04 21:43:00,52.5,48.8,29.59,NW,317,10.0,10.0,87,0.00,,---,0.00,VWS V14.01,2013-05-05 04:43:00,
2013-05-04 21:48:00,52.5,48.8,29.59,NW,313,3.0,10.0,87,0.00,,---,0.00,VWS V14.01,2013-05-05 04:48:00,
2013-05-04 21:53:00,52.5,48.8,29.59,NW,314,7.0,10.0,87,0.00,,---,0.00,VWS V14.01,2013-05-05 04:53:00,
2013-05-04 21:58:00,52.5,48.8,29.59,NW,305,0.0,10.0,87,0.00,,---,0.00,VWS V14.01,2013-05-05 04:58:00,
2013-05-04 22:00:00,52.5,48.8,29.59,NW,304,0.0,10.0,87,0.00,,---,0.00,VWS V14.01,2013-05-05 05:00:00,
2013-05-04 22:03:00,52.6,48.5,29.59,NW,306,0.0,0.0,86,0.00,,---,0.00,VWS V14.01,2013-05-05 05:03:00,
2013-05-04 22:08:00,52.8,48.4,29.59,NNW,331,0.0,2.0,85,0.00,,---,0.00,VWS V14.01,2013-05-05 05:08:00,
2013-05-04 22:13:00,53.0,48.6,29.59,NNW,332,0.0,2.0,85,0.00,,---,0.00,VWS V14.01,2013-05-05 05:13:00,
2013-05-04 22:18:00,53.2,48.5,29.59,NNW,333,0.0,2.0,84,0.00,,---,0.00,VWS V14.01,2013-05-05 05:18:00,
2013-05-04 22:23:00,53.1,48.4,29.60,NNW,327,0.0,3.0,84,0.00,,---,0.00,VWS V14.01,2013-05-05 05:23:00,
2013-05-04 22:28:00,52.9,48.2,29.60,NW,326,0.0,3.0,84,0.00,,---,0.00,VWS V14.01,2013-05-05 05:28:00,
2013-05-04 22:30:00,52.9,48.2,29.60,NNW,327,0.0,3.0,84,0.00,,---,0.00,VWS V14.01,2013-05-05 05:30:00,
2013-05-04 22:33:00,52.9,48.5,29.60,NNW,327,0.0,0.0,85,0.00,,---,0.00,VWS V14.01,2013-05-05 05:33:00,
2013-05-04 22:38:00,53.0,48.3,29.60,NNW,329,0.0,0.0,84,0.00,,---,0.00,VWS V14.01,2013-05-05 05:38:00,
2013-05-04 22:43:00,53.1,48.4,29.60,NNW,329,0.0,0.0,84,0.00,,---,0.00,VWS V14.01,2013-05-05 05:43:00,
2013-05-04 22:48:00,53.2,48.2,29.60,NNW,329,0.0,0.0,83,0.00,,---,0.00,VWS V14.01,2013-05-05 05:48:00,
2013-05-04 22:53:00,53.2,48.2,29.59,WSW,252,0.0,0.0,83,0.00,,---,0.00,VWS V14.01,2013-05-05 05:53:00,
2013-05-04 22:58:00,53.2,48.2,29.59,WSW,251,0.0,0.0,83,0.00,,---,0.00,VWS V14.01,2013-05-05 05:58:00,
2013-05-04 23:00:00,53.2,48.2,29.59,WSW,250,0.0,0.0,83,0.00,,---,0.00,VWS V14.01,2013-05-05 06:00:00,
2013-05-04 23:03:00,53.3,48.3,29.59,WSW,250,0.0,0.0,83,0.00,,---,0.00,VWS V14.01,2013-05-05 06:03:00,
2013-05-04 23:08:00,53.3,48.0,29.59,WSW,246,0.0,1.0,82,0.00,,---,0.00,VWS V14.01,2013-05-05 06:08:00,
2013-05-04 23:13:00,53.4,48.0,29.59,SSE,148,0.0,4.0,82,0.00,,---,0.00,VWS V14.01,2013-05-05 06:13:00,
2013-05-04 23:19:00,53.5,47.8,29.60,South,172,0.0,4.0,81,0.00,,---,0.00,VWS V14.01,2013-05-05 06:19:00,
2013-05-04 23:24:00,53.6,47.3,29.60,SSE,162,0.0,6.0,79,0.00,,---,0.00,VWS V14.01,2013-05-05 06:24:00,
2013-05-04 23:29:00,53.7,47.3,29.60,SSE,150,3.0,9.0,79,0.00,,---,0.00,VWS V14.01,2013-05-05 06:29:00,
2013-05-04 23:30:00,53.7,47.3,29.60,SSE,163,1.0,9.0,79,0.00,,---,0.00,VWS V14.01,2013-05-05 06:30:00,
2013-05-04 23:34:00,53.8,47.5,29.60,SE,130,2.0,7.0,79,0.00,,---,0.00,VWS V14.01,2013-05-05 06:34:00,
2013-05-04 23:39:00,53.8,47.5,29.60,SE,142,3.0,7.0,79,0.00,,---,0.00,VWS V14.01,2013-05-05 06:39:00,
2013-05-04 23:44:00,53.7,47.3,29.60,South,187,0.0,7.0,79,0.00,,---,0.00,VWS V14.01,2013-05-05 06:44:00,
2013-05-04 23:49:00,53.7,47.3,29.60,South,179,0.0,7.0,79,0.00,,---,0.00,VWS V14.01,2013-05-05 06:49:00,
2013-05-04 23:54:00,53.6,47.6,29.60,South,169,0.0,7.0,80,0.00,,---,0.00,VWS V14.01,2013-05-05 06:54:00,
2013-05-04 23:59:00,53.6,47.6,29.60,South,169,2.0,7.0,80,0.00,,---,0.00,VWS V14.01,2013-05-05 06:59:00,